Regional Weather Roundup
Issued by NWS State College, PA

Home | Current Version | Previous Version | Text Only | Print | Product List | Glossary Off
Versions: 1 2 3 4 5 6 7 8 9 10 11 12 13 14 15 16 17 18 19 20 21 22 23 24 25 26 27 28 29 30 31 32 33 34 35 36 37 38 39 40 41 42 43 44 45 46 47 48 49 50

000
ASUS41 KCTP 260103
RWRCTP

REGIONAL WEATHER ROUNDUP
NATIONAL WEATHER SERVICE STATE COLLEGE PA
800 PM EST SUN JAN 25 2015

Note: "fair" indicates few or no clouds below 12,000 feet with no
significant weather and/or obstructions to visibility.

* = STATION THAT DOES NOT REPORT PRECIPITATION /E.G. RAIN...SNOW...ETC/
    THUNDER OR FOG.

PAZ002>004-007>009-013>016-020>023-029>032-260200-
WESTERN PENNSYLVANIA

CITY           SKY/WX    TMP DP  RH WIND       PRES   REMARKS
ERIE           CLOUDY    19  11  70 NE16      29.94R WCI   4
MEADVILLE      CLOUDY    19  14  81 NE10      29.84R WCI   7
FRANKLIN*      CLOUDY    25  12  58 NE6       29.84S
NEW CASTLE     LGT SNOW  25  24  96 N9        29.84S FOG
BEAVER COUNTY  NOT AVBL
BUTLER*        CLOUDY    28  27  93 NE9       29.82S
PITTSBURGH INT LGT SNOW  31  30  96 NE6       29.78S FOG
PITTSBURGH     LGT SNOW  31  28  89 NE7       29.77F VSB 1
INDIANA*       MOCLDY    32  30  93 E7        29.83F FOG
LATROBE        LGT SNOW  32  32 100 CALM      29.81S VSB 1
WASHINGTON CO* CLOUDY    32  30  93 NE3       29.79S
$$

PAZ004>006-010>012-017>019-024>028-033>037-041-042-045-046-049>053-260200-
CENTRAL PENNSYLVANIA

CITY           SKY/WX    TMP DP  RH WIND       PRES   REMARKS
BRADFORD       CLOUDY    20   7  57 NE8       29.81S WCI  10
DUBOIS         CLOUDY    27  20  75 E5        29.80R
CLEARFIELD     CLOUDY    30  22  72 CALM      29.82R
JOHNSTOWN      SNOW      31  29  92 E5        29.75S VSB 1/4
ALTOONA        LGT SNOW  31  31 100 NE8       29.81S FOG
STATE COLLEGE  CLOUDY    32  25  74 NE10      29.85R
WILLIAMSPORT   CLOUDY    31   8  38 NE6       29.91R
SELINSGROVE    CLOUDY    35  17  47 NE7       29.90R
FT INDIANTOWN  FLURRIES  35  29  81 E3        29.90R
CAPITAL CITY   LGT RAIN  37  32  82 NE6       29.89R
HARRISBURG     LGT RAIN  35  32  88 E6        29.89R FOG
YORK           LGT RAIN  34  33  96 CALM      29.87R FOG
$$

PAZ038>040-043-044-047-048-054-055-060>062-067>071-260200-
EASTERN PENNSYLVANIA

CITY           SKY/WX    TMP DP  RH WIND       PRES   REMARKS
SCRANTON       CLOUDY    24  11  57 N14       29.92R WCI  12
MOUNT POCONO   CLOUDY    24   8  50 N6        29.84R
ALLENTOWN      CLOUDY    34  18  52 NE7       29.92R
QUAKERTOWN*    NOT AVBL
READING        CLOUDY    36  29  75 NE5       29.90R
LANCASTER      LGT RAIN  35  31  85 NE8       29.89R
COATESVILLE    MIX PCPN  37  36  93 CALM      29.89R
POTTSTOWN      LGT RAIN  35  31  85 CALM      29.92R
BLUE BELL      CLOUDY    36  34  93 CALM      29.90R
DOYLESTOWN     CLOUDY    34  29  82 NE6       29.90R
WILLOW GROVE   NOT AVBL
NORTH PHILA    CLOUDY    41  31  67 NE5       29.93R
PHILADELPHIA   LGT RAIN  41  33  73 NE5       29.92R
$$



USA.gov is the U.S. government's official web portal to all federal, state and local government web resources and services.